SCP
0 0 0 0 0 0 0 0 0 0 0 0 0 0 0 0 0 0 0 1 1 2 2 2 2 2 2 2 2 2 2 2 2 2 2 2 2 2 2 2 2 2 2
0 0 0 0 0 0 0 0 0 0 0 0 0 0 0 0 0 0 0 1 1 2 2 2 2 2 2 2 2 2 2 2 3 3 2 2 2 2 2 2 2 2 2
1 0 0 0 0 0 0 0 0 0 0 0 0 0 0 0 0 0 0 0 0 1 1 2 2 2 2 2 2 2 2 2 2 3 3 2 3 2 2 2 3 2 2
1 1 0 0 0 0 0 0 0 0 0 0 0 0 0 0 0 0 0 0 0 0 1 1 2 2 2 2 2 2 2 2 2 2 2 2 2 2 2 2 2 2 2
1 1 1 0 0 0 0 0 0 0 0 0 0 0 0 0 0 0 0 0 0 0 0 0 1 1 2 2 2 2 1 1 1 1 1 1 2 2 2 2 2 2 2
1 1 1 0 0 0 0 0 0 0 0 0 0 0 0 0 0 0 0 0 0 0 0 0 0 0 1 1 1 1 1 1 1 1 1 1 1 1 1 1 1 2 2
1 1 1 0 0 0 0 0 0 0 0 0 0 0 0 0 0 0 0 0 0 0 0 0 0 0 0 0 0 0 0 0 0 0 0 1 1 1 1 1 1 1 1
1 1 0 0 0 0 0 0 0 0 0 0 0 0 0 0 0 0 0 0 0 0 0 0 0 0 0 0 0 0 0 0 0 0 0 0 1 1 1 1 1 1 1
1 0 0 0 0 0 0 0 0 0 0 0 0 0 0 0 0 0 0 0 0 0 0 0 0 0 0 0 0 0 0 0 0 0 0 0 1 1 1 0 0 0 0
0 0 0 0 0 0 0 0 0 0 0 0 0 0 0 0 0 0 0 0 0 0 0 0 0 0 0 0 0 0 0 0 0 0 0 0 0 0 0 0 0 0 0
0 0 0 0 0 0 0 0 0 0 0 0 0 0 0 0 0 0 0 0 0 0 0 0 0 0 0 0 0 0 0 0 0 0 0 0 0 0 0 0 0 1 1
0 0 0 0 0 0 0 0 0 0 0 0 0 0 0 0 0 0 0 0 0 0 0 0 0 0 0 0 0 0 0 0 0 0 0 0 0 0 0 0 0 1 1
0 0 0 0 0 0 0 0 0 0 0 0 0 0 0 0 0 0 0 0 0 0 0 0 0 0 0 0 0 0 0 0 0 0 0 0 0 0 0 0 0 0 0
0 0 0 0 0 0 0 0 0 0 0 0 0 0 0 0 0 0 0 0 0 0 0 0 0 0 0 0 0 0 0 0 0 0 0 0 0 0 0 0 0 0 0
0 0 0 0 0 0 0 0 0 0 0 0 0 0 0 0 0 0 0 0 0 0 0 0 0 0 0 0 0 0 0 0 0 0 0 0 0 0 0 0 0 0 0
0 0 0 0 0 0 0 0 0 0 0 0 0 0 0 0 0 0 0 0 0 0 0 0 0 0 0 0 0 0 0 0 0 0 0 0 0 0 0 0 0 0 0
0 0 0 0 0 0 0 0 0 0 0 0 0 0 0 0 0 0 0 0 0 0 0 0 0 0 0 0 0 0 0 0 0 0 0 0 0 0 0 0 0 0 0
0 0 0 0 0 0 0 0 0 0 0 0 0 0 0 0 0 0 0 0 0 0 0 0 0 0 0 0 0 0 0 0 0 0 0 0 0 0 0 0 0 0 0
0 0 0 0 0 0 0 0 0 0 0 0 0 0 0 0 0 0 0 0 0 0 0 0 0 0 0 0 0 0 0 0 0 0 0 0 0 0 0 0 0 0 0
0 0 0 0 0 0 0 0 0 0 0 0 0 0 0 0 0 0 0 0 0 0 0 0 0 0 0 0 0 0 0 0 0 0 0 0 0 0 0 0 0 0 0
0 0 0 0 0 0 0 0 0 0 0 0 0 0 0 0 0 0 0 0 0 0 0 0 0 0 0 0 0 0 0 0 0 0 0 0 0 0 0 0 0 0 0
0 0 0 0 0 0 0 0 0 0 0 0 0 0 0 0 0 0 0 0 0 0 0 0 0 0 0 0 0 0 0 0 0 0 0 0 0 0 0 0 0 0 0
0 0 0 0 0 0 0 0 0 0 0 0 0 0 0 0 0 0 0 0 0 0 0 0 0 0 0 0 0 0 0 0 0 0 0 0 0 0 0 0 0 0 0
0 0 0 0 0 0 0 0 0 0 0 0 0 0 0 0 0 0 0 0 0 0 0 0 0 0 0 0 0 0 0 0 0 0 0 0 0 0 0 0 0 0 0
0 0 0 0 0 0 0 0 0 0 0 0 0 0 0 0 0 0 0 0 0 0 0 0 0 0 0 0 0 0 0 0 0 0 0 0 0 0 0 0 0 0 0
0 0 0 0 0 0 0 0 0 0 0 0 0 0 0 0 0 0 0 0 0 0 0 0 0 0 0 0 0 0 0 0 0 0 0 0 0 0 0 0 0 0 0
Wind_Speed
3 3 2 1 1 1 1 1 2 3 3 4 4 5 5 5 4 3 3 6 5 4 6 7 7 7 7 6 5 4 5 5 4 4 3 3 2 2 2 3 3 4 5
4 3 2 2 1 2 2 2 3 3 3 4 5 6 6 5 5 5 4 5 8 7 7 7 7 7 7 7 6 6 5 5 5 4 4 3 3 3 2 2 2 3 4
5 4 3 2 2 2 3 3 4 4 4 4 5 5 5 5 5 5 5 4 4 7 9 8 7 6 7 7 7 6 5 5 5 5 5 4 4 3 3 2 2 3 3
5 4 3 3 3 3 4 4 3 4 4 3 3 3 3 3 4 5 5 5 5 5 7 10 8 6 6 6 6 6 7 6 6 6 6 6 6 5 5 4 4 4 4
5 4 4 3 4 4 4 4 3 3 3 2 2 3 3 3 4 5 7 7 7 7 6 10 13 13 11 9 7 6 6 7 7 8 9 9 8 8 7 6 6 5 6
5 5 4 5 5 5 4 4 4 3 2 1 2 3 3 3 4 5 6 6 7 8 8 8 7 9 14 14 12 10 9 9 8 9 10 11 10 9 8 8 8 8 8
6 5 5 5 5 5 5 5 3 4 3 1 2 2 2 4 4 4 4 5 6 6 7 7 5 5 5 11 12 11 11 11 11 10 11 11 11 10 9 10 10 10 11
5 5 6 5 5 5 5 4 3 3 3 3 2 2 2 1 2 3 3 4 4 4 5 5 4 4 3 3 6 10 10 11 11 11 12 12 13 12 11 12 13 14 13
5 5 6 6 5 5 5 4 4 4 3 2 3 2 2 1 2 1 1 1 2 2 2 2 2 3 3 2 3 6 9 10 11 12 12 13 13 14 14 15 16 16 17
6 6 5 6 5 5 5 4 4 3 4 2 2 2 2 2 1 2 2 2 2 2 3 3 3 4 4 3 4 8 10 11 12 12 13 14 14 15 15 17 19 19 20
5 6 6 5 5 5 5 5 5 4 3 3 2 1 2 2 1 2 3 4 4 3 4 4 4 4 5 5 5 8 12 13 14 15 15 16 17 17 18 18 19 21 21
4 5 6 5 5 5 5 4 4 5 3 3 2 2 2 2 2 3 4 5 5 5 5 5 5 5 5 5 8 13 15 16 16 16 17 18 19 20 20 20 21 21 22
3 4 5 4 4 4 4 4 4 3 3 2 2 1 2 2 2 2 3 5 5 5 4 4 5 5 6 5 6 14 15 17 17 18 18 19 20 21 22 22 22 22 22
4 4 5 5 4 4 4 3 3 3 2 2 1 0 1 2 2 3 3 4 6 6 5 6 4 5 6 6 8 15 11 17 19 19 20 21 22 22 23 23 23 23 23
5 5 5 5 5 5 5 4 4 4 3 3 2 1 1 2 2 3 3 4 5 9 9 6 4 4 5 6 11 10 10 15 20 20 21 21 22 22 23 23 24 24 24
6 6 6 6 6 6 6 6 5 4 4 3 2 2 2 2 3 2 3 3 4 6 8 5 6 8 9 10 14 12 12 19 21 21 21 21 21 22 22 23 23 23 23
7 7 7 7 7 7 6 6 5 4 4 4 4 4 5 4 3 3 4 4 4 5 9 9 7 8 10 12 12 11 11 11 11 19 20 21 21 21 22 22 22 22 23
7 7 7 7 7 6 5 5 5 5 5 5 5 5 6 5 6 5 4 5 6 6 7 12 10 9 11 12 12 13 11 10 10 16 21 21 22 22 21 21 21 20 19
7 7 6 6 6 5 5 4 4 3 4 4 5 6 7 6 7 6 7 7 6 7 7 9 11 9 9 10 11 11 12 10 11 13 17 19 20 21 20 19 18 17 16
6 6 5 5 4 4 3 3 3 4 4 5 6 6 7 7 8 8 7 8 7 8 9 9 10 9 9 9 8 9 9 8 9 10 12 14 17 20 20 19 19 19 16
6 5 5 4 3 2 2 3 3 4 5 7 7 7 7 11 12 9 8 8 8 8 8 8 9 8 8 8 7 7 9 8 9 9 9 9 9 9 11 15 17 18 17
5 5 4 3 3 3 5 6 5 4 6 7 8 9 9 9 11 14 15 15 14 11 10 9 8 9 10 9 8 7 8 8 6 4 5 8 7 9 9 8 13 17 16
5 5 4 4 3 4 6 8 10 6 7 7 8 8 7 8 11 8 11 15 14 16 15 11 10 10 11 10 9 9 8 8 8 6 6 8 7 8 8 8 14 15 15
4 3 4 4 3 5 8 9 11 7 7 8 8 8 9 10 9 10 10 11 10 11 12 9 9 10 10 9 9 8 8 8 8 7 6 6 5 6 7 6 10 13 13
4 3 3 4 4 5 8 10 10 7 7 9 9 9 9 9 12 13 11 10 11 10 11 12 13 12 13 12 9 6 6 6 6 6 3 3 4 5 5 5 5 8 10
3 3 4 4 5 5 9 10 11 6 7 8 9 9 10 10 14 14 9 9 10 10 10 11 10 9 8 8 9 6 6 6 5 4 2 3 3 4 4 3 3 2 3
Wind_Direction
190 188 189 183 167 140 135 92 62 53 51 45 46 51 44 37 31 23 2 353 341 311 284 271 263 257 252 244 235 230 228 225 216 211 208 206 210 229 246 253 260 264 262
185 183 187 183 166 151 137 114 94 83 71 65 56 52 47 39 32 30 24 11 8 356 332 306 288 276 268 260 251 245 241 235 233 226 219 210 208 210 221 243 262 275 280
185 179 174 167 150 127 118 104 94 85 79 70 62 55 48 37 33 30 29 24 12 7 1 349 332 309 285 275 268 257 250 246 245 242 235 228 222 220 226 238 254 272 277
172 163 158 156 134 118 113 107 97 84 69 66 68 52 41 33 34 42 43 36 30 24 18 18 10 357 327 300 284 274 264 260 259 259 256 252 246 244 240 238 248 262 272
162 153 148 137 120 105 101 107 84 94 83 70 85 72 44 43 43 57 53 47 43 39 34 31 34 32 26 15 357 328 300 285 281 279 275 268 260 253 249 241 245 254 265
146 141 131 124 115 105 94 92 94 77 83 87 85 72 54 57 65 61 61 55 50 49 46 41 34 28 31 28 18 6 349 327 312 302 292 284 279 268 256 248 246 249 254
138 135 130 123 118 117 125 127 111 90 57 28 95 72 58 61 73 64 60 61 54 48 48 45 41 36 23 25 18 12 4 349 334 320 308 303 299 282 262 250 247 247 250
125 129 130 126 119 115 113 114 118 109 65 26 92 93 41 28 36 49 47 63 54 41 39 34 32 30 21 13 359 0 356 347 337 324 314 310 307 294 277 264 256 252 249
109 116 121 121 124 122 118 111 113 122 121 53 42 120 136 221 315 338 0 39 26 29 11 347 354 346 339 336 326 333 333 331 325 319 313 310 307 301 288 276 268 260 252
103 108 110 112 112 108 112 110 99 108 118 115 66 48 89 137 168 313 307 310 321 322 315 312 310 298 291 286 286 300 308 311 309 307 305 302 299 297 294 283 273 267 260
96 106 105 110 108 104 107 106 104 98 100 121 127 117 94 74 113 205 278 302 306 288 279 276 277 277 275 269 268 274 290 297 296 296 294 293 291 288 286 286 280 273 266
98 100 104 101 102 104 107 108 108 107 108 115 127 141 152 171 199 202 243 270 284 288 286 272 265 267 268 266 268 283 292 295 295 293 291 289 287 284 282 281 280 277 271
109 110 109 105 103 108 110 109 107 107 113 121 150 171 191 212 204 206 240 267 269 274 273 269 260 262 269 266 269 284 292 294 293 291 288 286 285 282 279 277 276 275 274
119 117 113 108 102 98 97 93 84 77 76 74 74 171 236 245 219 217 234 269 288 280 258 263 271 264 272 274 271 284 286 288 290 289 286 283 281 279 277 276 275 273 272
115 107 101 93 86 82 80 78 68 59 61 50 36 12 305 287 269 250 243 243 272 293 294 275 265 271 278 278 277 282 277 281 286 285 284 281 279 277 275 274 272 270 268
96 95 87 82 77 73 74 74 69 61 63 43 24 12 341 308 303 289 273 263 252 272 289 283 279 281 283 286 288 288 282 284 286 284 282 280 277 275 273 271 269 267 264
89 90 89 86 83 78 76 78 72 57 47 27 10 354 332 318 308 305 295 283 273 268 285 294 283 280 278 280 285 284 280 277 274 276 278 279 277 274 272 270 269 268 266
82 89 94 95 93 86 79 76 63 48 32 9 350 337 325 321 312 301 292 285 280 271 276 294 298 293 284 283 281 280 281 277 274 276 277 278 276 275 273 269 268 267 266
85 89 94 96 93 88 78 69 58 35 11 345 328 318 312 311 303 296 290 284 280 281 276 286 293 292 288 285 285 281 281 278 278 277 277 277 276 276 275 271 269 266 262
87 86 87 89 86 79 70 49 27 6 345 329 318 308 302 297 289 289 288 284 285 287 285 284 288 291 289 287 280 285 289 284 281 282 279 276 274 275 274 271 268 264 258
82 84 81 70 58 59 45 26 1 344 331 324 320 314 306 304 305 304 304 302 298 292 291 289 290 293 295 296 291 286 289 292 284 275 276 275 274 270 271 269 267 264 258
66 67 60 52 39 36 24 17 2 337 326 320 317 316 312 306 311 314 313 311 308 303 301 296 295 297 299 298 294 290 291 294 290 270 271 279 274 271 266 257 256 256 254
59 56 45 42 33 12 15 5 354 344 323 314 311 310 311 310 314 308 309 310 306 301 297 296 297 300 299 300 297 294 290 291 290 287 283 284 276 271 269 263 260 253 248
51 42 36 30 20 6 6 359 349 341 322 316 311 306 305 308 311 316 313 307 304 302 298 296 288 290 293 295 293 293 293 292 285 282 277 282 283 279 279 267 257 252 247
45 36 26 17 8 347 348 349 352 335 328 324 320 317 316 314 313 318 318 312 309 307 307 302 296 293 294 296 298 300 300 301 304 303 291 279 290 293 286 279 268 254 249
46 33 22 7 354 338 336 344 350 339 332 329 324 323 323 319 318 320 317 309 309 311 312 312 310 306 303 301 302 298 299 300 303 296 302 299 286 298 294 286 287 278 254